Satellite: OKEAN-4 Catalog number: 23317 Epoch time: 14079.82482419 Element set: 482 Inclination: 082.5400 deg RA of node: 150.7632 deg Eccentricity: 0.0022323 Arg of perigee: 035.5148 deg Mean anomaly: 324.8056 deg Mean motion: 14.85263688 rev/day Decay rate: 1.891e-05 rev/day^2 Epoch rev: 5023 Checksum: 291
Satellite: NOAA-14 Catalog number: 23455 Epoch time: 14079.33257281 Element set: 690 Inclination: 098.7803 deg RA of node: 164.3373 deg Eccentricity: 0.0008414 Arg of perigee: 293.4687 deg Mean anomaly: 107.9215 deg Mean motion: 14.13957907 rev/day Decay rate: 2.6e-07 rev/day^2 Epoch rev: 99139 Checksum: 330
Satellite: NOAA-15 Catalog number: 25338 Epoch time: 14079.47823944 Element set: 119 Inclination: 098.7489 deg RA of node: 073.5318 deg Eccentricity: 0.0011357 Arg of perigee: 051.2251 deg Mean anomaly: 111.8332 deg Mean motion: 14.25371211 rev/day Decay rate: 4.02e-06 rev/day^2 Epoch rev: 82420 Checksum: 283
Satellite: RESURS Catalog number: 25394 Epoch time: 14077.81739655 Element set: 612 Inclination: 098.4028 deg RA of node: 046.0438 deg Eccentricity: 0.0002201 Arg of perigee: 135.6906 deg Mean anomaly: 283.3322 deg Mean motion: 14.24378178 rev/day Decay rate: 1.14e-06 rev/day^2 Epoch rev: 81545 Checksum: 292
Satellite: FENGYUN1 Catalog number: 25730 Epoch time: 14078.11614821 Element set: 105 Inclination: 098.9071 deg RA of node: 039.8117 deg Eccentricity: 0.0028426 Arg of perigee: 005.9183 deg Mean anomaly: 053.3549 deg Mean motion: 14.11604716 rev/day Decay rate: 3.210e-05 rev/day^2 Epoch rev: 76481 Checksum: 279
Satellite: OKEAN-0 Catalog number: 25860 Epoch time: 14078.02596171 Element set: 203 Inclination: 098.0327 deg RA of node: 042.4908 deg Eccentricity: 0.0001394 Arg of perigee: 079.7057 deg Mean anomaly: 319.5702 deg Mean motion: 14.75076564 rev/day Decay rate: 1.374e-05 rev/day^2 Epoch rev: 78886 Checksum: 318
Satellite: NOAA-16 Catalog number: 26536 Epoch time: 14079.78249944 Element set: 609 Inclination: 099.0013 deg RA of node: 139.7185 deg Eccentricity: 0.0011498 Arg of perigee: 077.3035 deg Mean anomaly: 282.9897 deg Mean motion: 14.13007289 rev/day Decay rate: 2.23e-06 rev/day^2 Epoch rev: 69563 Checksum: 342
Satellite: NOAA-17 Catalog number: 27453 Epoch time: 14079.84561822 Element set: 515 Inclination: 098.3131 deg RA of node: 084.2155 deg Eccentricity: 0.0012820 Arg of perigee: 074.7403 deg Mean anomaly: 285.5669 deg Mean motion: 14.24708876 rev/day Decay rate: 3.00e-06 rev/day^2 Epoch rev: 61011 Checksum: 295
Satellite: NOAA-18 Catalog number: 28654 Epoch time: 14079.79713227 Element set: 998 Inclination: 099.1394 deg RA of node: 057.5623 deg Eccentricity: 0.0014693 Arg of perigee: 148.5099 deg Mean anomaly: 211.7431 deg Mean motion: 14.11971631 rev/day Decay rate: 4.43e-06 rev/day^2 Epoch rev: 45509 Checksum: 338
Satellite: NOAA-19 Catalog number: 33591 Epoch time: 14079.80700206 Element set: 167 Inclination: 098.9361 deg RA of node: 025.1479 deg Eccentricity: 0.0014533 Arg of perigee: 013.2651 deg Mean anomaly: 346.9385 deg Mean motion: 14.11667547 rev/day Decay rate: 2.65e-06 rev/day^2 Epoch rev: 26352 Checksum: 308
/EX SB KEPS @ AMSAT $ORB14079.M Orbital Elements 14079.MISC
HR AMSAT ORBITAL ELEMENTS FOR MANNED AND MISCELLANEOUS SATELLITES FROM WA5QGD FORT WORTH,TX March 20, 2014 BID: ORB14079.M TO ALL RADIO AMATEURS BT
Satellite: HUBBLE Catalog number: 20580 Epoch time: 14077.75109080 Element set: 461 Inclination: 028.4697 deg RA of node: 271.4697 deg Eccentricity: 0.0003533 Arg of perigee: 042.8441 deg Mean anomaly: 018.5049 deg Mean motion: 15.04938338 rev/day Decay rate: 4.197e-05 rev/day^2 Epoch rev: 11107 Checksum: 294
Satellite: ISS Catalog number: 25544 Epoch time: 14079.78334112 Element set: 911 Inclination: 051.6474 deg RA of node: 177.7459 deg Eccentricity: 0.0003642 Arg of perigee: 327.9101 deg Mean anomaly: 032.2183 deg Mean motion: 15.50791378 rev/day Decay rate: 2.4074e-04 rev/day^2 Epoch rev: 533 Checksum: 286
Satellite: CO-58 Catalog number: 28895 Epoch time: 14078.81534555 Element set: 721 Inclination: 097.8432 deg RA of node: 285.2933 deg Eccentricity: 0.0016145 Arg of perigee: 293.9471 deg Mean anomaly: 066.0040 deg Mean motion: 14.61676859 rev/day Decay rate: 1.418e-05 rev/day^2 Epoch rev: 44719 Checksum: 345
Satellite: FALCON Catalog number: 30776 Epoch time: 14078.59196226 Element set: 827 Inclination: 035.4293 deg RA of node: 307.8901 deg Eccentricity: 0.0001781 Arg of perigee: 261.2583 deg Mean anomaly: 189.8557 deg Mean motion: 15.14603295 rev/day Decay rate: 1.2409e-04 rev/day^2 Epoch rev: 38713 Checksum: 322
Satellite: MAST Catalog number: 31126 Epoch time: 14078.48288249 Element set: 0 Inclination: 097.9074 deg RA of node: 064.1008 deg Eccentricity: 0.0090899 Arg of perigee: 274.0714 deg Mean anomaly: 203.3522 deg Mean motion: 14.55102727 rev/day Decay rate: 1.170e-05 rev/day^2 Epoch rev: 36734 Checksum: 284
Satellite: CAPE1 Catalog number: 31130 Epoch time: 14077.66989701 Element set: 5 Inclination: 097.9276 deg RA of node: 059.8780 deg Eccentricity: 0.0097889 Arg of perigee: 294.4702 deg Mean anomaly: 064.6310 deg Mean motion: 14.54198955 rev/day Decay rate: 2.015e-05 rev/day^2 Epoch rev: 36665 Checksum: 338
Satellite: COMPASS Catalog number: 32787 Epoch time: 14078.37147797 Element set: 880 Inclination: 097.7123 deg RA of node: 134.4570 deg Eccentricity: 0.0015610 Arg of perigee: 116.9334 deg Mean anomaly: 243.3479 deg Mean motion: 14.87207402 rev/day Decay rate: 4.847e-05 rev/day^2 Epoch rev: 31883 Checksum: 322
Satellite: AAUSAT2 Catalog number: 32788 Epoch time: 14078.14778344 Element set: 867 Inclination: 097.7128 deg RA of node: 135.1223 deg Eccentricity: 0.0015104 Arg of perigee: 116.8757 deg Mean anomaly: 243.4006 deg Mean motion: 14.87838664 rev/day Decay rate: 5.784e-05 rev/day^2 Epoch rev: 31885 Checksum: 337
Satellite: DO-64 Catalog number: 32789 Epoch time: 14078.79858476 Element set: 903 Inclination: 097.7306 deg RA of node: 141.4406 deg Eccentricity: 0.0014076 Arg of perigee: 104.9834 deg Mean anomaly: 307.9618 deg Mean motion: 14.91946435 rev/day Decay rate: 1.0955e-04 rev/day^2 Epoch rev: 31916 Checksum: 352
Satellite: CO-66 Catalog number: 32791 Epoch time: 14078.78914212 Element set: 864 Inclination: 097.7115 deg RA of node: 133.8056 deg Eccentricity: 0.0016112 Arg of perigee: 118.2472 deg Mean anomaly: 242.0372 deg Mean motion: 14.86014353 rev/day Decay rate: 3.716e-05 rev/day^2 Epoch rev: 31877 Checksum: 305
Satellite: RS-30 Catalog number: 32953 Epoch time: 14079.21230881 Element set: 753 Inclination: 082.4987 deg RA of node: 256.5335 deg Eccentricity: 0.0018597 Arg of perigee: 352.4553 deg Mean anomaly: 007.6254 deg Mean motion: 12.43044025 rev/day Decay rate: 1.0e-07 rev/day^2 Epoch rev: 26420 Checksum: 285
Satellite: METEOR-M Catalog number: 35865 Epoch time: 14079.70329669 Element set: 363 Inclination: 098.5604 deg RA of node: 129.7526 deg Eccentricity: 0.0002526 Arg of perigee: 016.3740 deg Mean anomaly: 343.7996 deg Mean motion: 14.21913133 rev/day Decay rate: 4.4e-07 rev/day^2 Epoch rev: 23382 Checksum: 308
Satellite: RS-38 Catalog number: 35869 Epoch time: 14079.19394524 Element set: 300 Inclination: 098.5554 deg RA of node: 129.0842 deg Eccentricity: 0.0004933 Arg of perigee: 003.5071 deg Mean anomaly: 356.6129 deg Mean motion: 14.22189782 rev/day Decay rate: 9.0e-07 rev/day^2 Epoch rev: 23372 Checksum: 313
Satellite: JUGNU Catalog number: 37839 Epoch time: 14077.32269730 Element set: 582 Inclination: 019.9620 deg RA of node: 085.6235 deg Eccentricity: 0.0019220 Arg of perigee: 063.2164 deg Mean anomaly: 054.2086 deg Mean motion: 14.12269432 rev/day Decay rate: 5.41e-06 rev/day^2 Epoch rev: 12569 Checksum: 289
Satellite: SRMSAT Catalog number: 37841 Epoch time: 14078.39859561 Element set: 585 Inclination: 019.9723 deg RA of node: 096.6251 deg Eccentricity: 0.0012052 Arg of perigee: 018.7642 deg Mean anomaly: 114.4435 deg Mean motion: 14.10318862 rev/day Decay rate: 5.17e-06 rev/day^2 Epoch rev: 12566 Checksum: 303
Satellite: RAX-2 Catalog number: 37853 Epoch time: 14077.49604082 Element set: 752 Inclination: 101.7162 deg RA of node: 063.9866 deg Eccentricity: 0.0221010 Arg of perigee: 318.9947 deg Mean anomaly: 154.4953 deg Mean motion: 14.87943141 rev/day Decay rate: 1.4879e-04 rev/day^2 Epoch rev: 12916 Checksum: 326
Satellite: AUBIESAT Catalog number: 37854 Epoch time: 14078.56786513 Element set: 736 Inclination: 101.7206 deg RA of node: 067.1226 deg Eccentricity: 0.0219077 Arg of perigee: 313.5445 deg Mean anomaly: 162.4539 deg Mean motion: 14.89180198 rev/day Decay rate: 1.6042e-04 rev/day^2 Epoch rev: 12936 Checksum: 316
Satellite: HRBE Catalog number: 37855 Epoch time: 14078.58458524 Element set: 745 Inclination: 101.7211 deg RA of node: 066.6418 deg Eccentricity: 0.0220888 Arg of perigee: 314.4955 deg Mean anomaly: 161.7433 deg Mean motion: 14.88569648 rev/day Decay rate: 1.5117e-04 rev/day^2 Epoch rev: 12934 Checksum: 333
Satellite: RS-39 Catalog number: 38051 Epoch time: 14079.24847345 Element set: 374 Inclination: 051.6305 deg RA of node: 306.8343 deg Eccentricity: 0.0010142 Arg of perigee: 196.8657 deg Mean anomaly: 270.1587 deg Mean motion: 15.48357950 rev/day Decay rate: 6.3877e-04 rev/day^2 Epoch rev: 12027 Checksum: 326
Satellite: E-STAR Catalog number: 38079 Epoch time: 14079.21894723 Element set: 785 Inclination: 069.4582 deg RA of node: 222.8477 deg Eccentricity: 0.0446784 Arg of perigee: 122.7711 deg Mean anomaly: 241.7411 deg Mean motion: 14.87868433 rev/day Decay rate: 1.56573e-03 rev/day^2 Epoch rev: 11012 Checksum: 335
